Bungo Princess — 3FXV8 — position and weather

sailwx.info

Track history (hours):
 
Tides and Currents Weather Stations Pressure Air Temp Water Temp Dewpoint Dewpoint Depression Visibility Wind Speed Wind Dir Waves Ship Positions

Bungo Princess

Last reported at 2014-Jul-26 00:31 UTC. Time now 2014-Jul-29 04:42 UTC.
Position N 36°49' E 141°11'.

Length 103 m; draft 5.3 m.

Type: Cargo ship. MMSI: 355091000.

Date/timePositionNaut miles runAvg speedWind from/ knotsBaromVisibWave heightAir tempDewpointWater temp
2014-Jul-26 00:31N 36°49' E 141°11'2713.0
2014-Jul-25 22:26N 36°22' E 141°08'1513.1
2014-Jul-25 21:17N 36°07' E 141°06'2212.9
2014-Jul-25 19:33N 35°45' E 141°03'2612.5
2014-Jul-25 17:29N 35°22' E 140°47'1313.5
2014-Jul-25 16:29N 35°11' E 140°38'1515.3
2014-Jul-25 15:31N 35°02' E 140°24'1515.7
2014-Jul-25 14:33N 34°54' E 140°09'1515.0
2014-Jul-25 13:33N 34°49' E 139°51'1212.5
2014-Jul-25 12:33N 34°59' E 139°42'1313.3
2014-Jul-25 11:33N 35°12' E 139°46'1212.2
2014-Jul-25 10:33N 35°23' E 139°42'8 7.9
2014-Jul-25 09:33N 35°22' E 139°52'1 1.0
2014-Jul-25 08:26N 35°22' E 139°53'0 0.0
2014-Jul-25 07:23N 35°22' E 139°53'0 0.0
2014-Jul-25 06:29N 35°22' E 139°53'0 0.0
2014-Jul-25 05:20N 35°22' E 139°53'0 0.0
2014-Jul-25 04:31N 35°22' E 139°53'0 0.0
2014-Jul-25 03:28N 35°22' E 139°53'0 0.0
2014-Jul-25 02:23N 35°22' E 139°53'0 0.0
2014-Jul-25 01:31N 35°22' E 139°53'0 0.0
2014-Jul-25 00:29N 35°22' E 139°53'0 0.0
2014-Jul-24 23:31N 35°22' E 139°53'0 0.1
2014-Jul-24 22:33N 35°22' E 139°53'4 3.6
2014-Jul-24 21:31N 35°25' E 139°50'0 0.0
2014-Jul-24 20:31N 35°25' E 139°50'0 0.0
2014-Jul-24 19:25N 35°25' E 139°50'0 0.1
2014-Jul-24 18:31N 35°25' E 139°50'0 0.0
2014-Jul-24 17:31N 35°25' E 139°50'0 0.0
2014-Jul-24 16:31N 35°25' E 139°50'0 0.0
2014-Jul-24 15:31N 35°25' E 139°50'0 0.0
2014-Jul-24 14:31N 35°25' E 139°50'0 0.0
2014-Jul-24 13:28N 35°25' E 139°50'0 0.0
2014-Jul-24 12:28N 35°25' E 139°50'0 0.1
2014-Jul-24 11:33N 35°25' E 139°50'8 8.2
2014-Jul-24 10:33N 35°18' E 139°45'1111.5
2014-Jul-24 09:33N 35°06' E 139°46'1313.1
2014-Jul-24 08:33N 34°57' E 139°34'1514.3
2014-Jul-24 07:32N 34°50' E 139°19'  
2014-Jul-21 07:28N 35°59' E 120°33'1111.8
2014-Jul-21 06:32N 36°02' E 120°19'3 0.1
2014-Jul-20 04:18N 36°03' E 120°16'7 9.0
2014-Jul-20 03:32N 36°01' E 120°24'1110.7
2014-Jul-20 02:33N 35°58' E 120°37'31210.0
2014-Jul-18 19:24N 31°00' E 122°28'3210.1
2014-Jul-18 16:15N 31°09' E 121°53'1014.8
2014-Jul-18 15:33N 31°17' E 121°44'1211.9
2014-Jul-18 14:33N 31°24' E 121°33'10 9.7
2014-Jul-18 13:33N 31°30' E 121°25'1312.7
2014-Jul-18 12:32N 31°39' E 121°13'1412.6
2014-Jul-18 11:24N 31°47' E 120°59'1011.1
2014-Jul-18 10:31N 31°55' E 120°53'1111.5
2014-Jul-18 09:33N 32°00' E 120°41'1212.3
2014-Jul-18 08:34N 32°01' E 120°27'4 3.7
2014-Jul-18 07:32N 31°58' E 120°24'0 0.0
2014-Jul-18 06:32N 31°58' E 120°24'0 0.0
2014-Jul-18 05:29N 31°58' E 120°24'0 0.0
2014-Jul-18 04:32N 31°58' E 120°24'0 0.0
2014-Jul-18 03:32N 31°58' E 120°24'0 0.0
2014-Jul-18 02:32N 31°58' E 120°24'0 0.0
2014-Jul-18 01:32N 31°58' E 120°24'0 0.0
2014-Jul-18 00:32N 31°58' E 120°24'0 0.0
2014-Jul-17 23:32N 31°58' E 120°24'0 0.0
2014-Jul-17 22:32N 31°58' E 120°24'0 0.0
2014-Jul-17 21:32N 31°58' E 120°24'0 0.0
2014-Jul-17 20:32N 31°58' E 120°24'0 0.0
2014-Jul-17 19:32N 31°58' E 120°24'0 0.0
2014-Jul-17 18:32N 31°58' E 120°24'0 0.0
2014-Jul-17 17:32N 31°58' E 120°24'0 0.0
2014-Jul-17 16:32N 31°58' E 120°24'0 0.0
2014-Jul-17 15:32N 31°58' E 120°24'0 0.0
2014-Jul-17 14:32N 31°58' E 120°24'0 0.0
2014-Jul-17 13:32N 31°58' E 120°24'0 0.0
2014-Jul-17 12:32N 31°58' E 120°24'0 0.0
2014-Jul-17 11:32N 31°58' E 120°24'0 0.0
2014-Jul-17 10:32N 31°58' E 120°24'0 0.0
2014-Jul-17 09:32N 31°58' E 120°24'4 3.9
2014-Jul-17 08:34N 32°01' E 120°27'8 8.4
2014-Jul-17 07:34N 31°60' E 120°36'7 6.4
2014-Jul-17 06:32N 31°60' E 120°44'0 0.0
2014-Jul-17 05:26N 31°60' E 120°44'0 0.0
2014-Jul-17 04:20N 31°60' E 120°44'0 0.1
2014-Jul-17 03:32N 31°60' E 120°44'0 0.0
2014-Jul-17 02:32N 31°60' E 120°44'0 0.0
2014-Jul-17 01:32N 31°60' E 120°44'0 0.1
2014-Jul-17 00:32N 31°60' E 120°44'0 0.0
2014-Jul-16 23:32N 31°60' E 120°44'0 0.1
2014-Jul-16 22:26N 31°60' E 120°44'0 0.0
2014-Jul-16 21:32N 31°60' E 120°44'0 0.0
2014-Jul-16 20:32N 31°60' E 120°44'0 0.1
2014-Jul-16 19:32N 31°60' E 120°44'0 0.1
2014-Jul-16 18:32N 31°60' E 120°44'0 0.0
2014-Jul-16 17:32N 31°60' E 120°44'0 0.1
2014-Jul-16 16:26N 31°60' E 120°44'0 0.1
2014-Jul-16 15:20N 31°60' E 120°44'0 0.1
2014-Jul-16 14:33N 31°60' E 120°44'1010.1
2014-Jul-16 13:33N 32°03' E 120°33'1211.6
2014-Jul-16 12:34N 31°59' E 120°20'5 5.4
2014-Jul-16 11:33N 31°56' E 120°15'0 0.0
2014-Jul-16 10:27N 31°56' E 120°15'0 0.0
2014-Jul-16 09:33N 31°56' E 120°15'0 0.0
2014-Jul-16 08:33N 31°56' E 120°15'0 0.0
2014-Jul-16 07:33N 31°56' E 120°15'0 0.0
2014-Jul-16 06:33N 31°56' E 120°15'0 0.0
2014-Jul-16 05:33N 31°56' E 120°15'0 0.0
2014-Jul-16 04:29N 31°56' E 120°15'0 0.0
2014-Jul-16 03:33N 31°56' E 120°15'0 0.0
2014-Jul-16 02:33N 31°56' E 120°15'0 0.0
2014-Jul-16 01:33N 31°56' E 120°15'0 0.0
2014-Jul-16 00:33N 31°56' E 120°15'  
Track history (hours):
 
Tides and Currents Weather Stations Pressure Air Temp Water Temp Dewpoint Dewpoint Depression Visibility Wind Speed Wind Dir Waves Ship Positions

Bungo Princess

Last reported at 2014-Jul-26 00:31 UTC. Time now 2014-Jul-29 04:42 UTC.
Position N 36°49' E 141°11'.

Length 103 m; draft 5.3 m.

Type: Cargo ship. MMSI: 355091000.

Date/timePositionNaut miles runAvg speedWind from/ knotsBaromVisibWave heightAir tempDewpointWater temp
2014-Jul-26 00:31N 36°49' E 141°11'2713.0
2014-Jul-25 22:26N 36°22' E 141°08'1513.1
2014-Jul-25 21:17N 36°07' E 141°06'2212.9
2014-Jul-25 19:33N 35°45' E 141°03'2612.5
2014-Jul-25 17:29N 35°22' E 140°47'1313.5
2014-Jul-25 16:29N 35°11' E 140°38'1515.3
2014-Jul-25 15:31N 35°02' E 140°24'1515.7
2014-Jul-25 14:33N 34°54' E 140°09'1515.0
2014-Jul-25 13:33N 34°49' E 139°51'1212.5
2014-Jul-25 12:33N 34°59' E 139°42'1313.3
2014-Jul-25 11:33N 35°12' E 139°46'1212.2
2014-Jul-25 10:33N 35°23' E 139°42'8 7.9
2014-Jul-25 09:33N 35°22' E 139°52'1 1.0
2014-Jul-25 08:26N 35°22' E 139°53'0 0.0
2014-Jul-25 07:23N 35°22' E 139°53'0 0.0
2014-Jul-25 06:29N 35°22' E 139°53'0 0.0
2014-Jul-25 05:20N 35°22' E 139°53'0 0.0
2014-Jul-25 04:31N 35°22' E 139°53'0 0.0
2014-Jul-25 03:28N 35°22' E 139°53'0 0.0
2014-Jul-25 02:23N 35°22' E 139°53'0 0.0
2014-Jul-25 01:31N 35°22' E 139°53'0 0.0
2014-Jul-25 00:29N 35°22' E 139°53'0 0.0
2014-Jul-24 23:31N 35°22' E 139°53'0 0.1
2014-Jul-24 22:33N 35°22' E 139°53'4 3.6
2014-Jul-24 21:31N 35°25' E 139°50'0 0.0
2014-Jul-24 20:31N 35°25' E 139°50'0 0.0
2014-Jul-24 19:25N 35°25' E 139°50'0 0.1
2014-Jul-24 18:31N 35°25' E 139°50'0 0.0
2014-Jul-24 17:31N 35°25' E 139°50'0 0.0
2014-Jul-24 16:31N 35°25' E 139°50'0 0.0
2014-Jul-24 15:31N 35°25' E 139°50'0 0.0
2014-Jul-24 14:31N 35°25' E 139°50'0 0.0
2014-Jul-24 13:28N 35°25' E 139°50'0 0.0
2014-Jul-24 12:28N 35°25' E 139°50'0 0.1
2014-Jul-24 11:33N 35°25' E 139°50'8 8.2
2014-Jul-24 10:33N 35°18' E 139°45'1111.5
2014-Jul-24 09:33N 35°06' E 139°46'1313.1
2014-Jul-24 08:33N 34°57' E 139°34'1514.3
2014-Jul-24 07:32N 34°50' E 139°19'  
2014-Jul-21 07:28N 35°59' E 120°33'1111.8
2014-Jul-21 06:32N 36°02' E 120°19'3 0.1
2014-Jul-20 04:18N 36°03' E 120°16'7 9.0
2014-Jul-20 03:32N 36°01' E 120°24'1110.7
2014-Jul-20 02:33N 35°58' E 120°37'31210.0
2014-Jul-18 19:24N 31°00' E 122°28'3210.1
2014-Jul-18 16:15N 31°09' E 121°53'1014.8
2014-Jul-18 15:33N 31°17' E 121°44'1211.9
2014-Jul-18 14:33N 31°24' E 121°33'10 9.7
2014-Jul-18 13:33N 31°30' E 121°25'1312.7
2014-Jul-18 12:32N 31°39' E 121°13'1412.6
2014-Jul-18 11:24N 31°47' E 120°59'1011.1
2014-Jul-18 10:31N 31°55' E 120°53'1111.5
2014-Jul-18 09:33N 32°00' E 120°41'1212.3
2014-Jul-18 08:34N 32°01' E 120°27'4 3.7
2014-Jul-18 07:32N 31°58' E 120°24'0 0.0
2014-Jul-18 06:32N 31°58' E 120°24'0 0.0
2014-Jul-18 05:29N 31°58' E 120°24'0 0.0
2014-Jul-18 04:32N 31°58' E 120°24'0 0.0
2014-Jul-18 03:32N 31°58' E 120°24'0 0.0
2014-Jul-18 02:32N 31°58' E 120°24'0 0.0
2014-Jul-18 01:32N 31°58' E 120°24'0 0.0
2014-Jul-18 00:32N 31°58' E 120°24'0 0.0
2014-Jul-17 23:32N 31°58' E 120°24'0 0.0
2014-Jul-17 22:32N 31°58' E 120°24'0 0.0
2014-Jul-17 21:32N 31°58' E 120°24'0 0.0
2014-Jul-17 20:32N 31°58' E 120°24'0 0.0
2014-Jul-17 19:32N 31°58' E 120°24'0 0.0
2014-Jul-17 18:32N 31°58' E 120°24'0 0.0
2014-Jul-17 17:32N 31°58' E 120°24'0 0.0
2014-Jul-17 16:32N 31°58' E 120°24'0 0.0
2014-Jul-17 15:32N 31°58' E 120°24'0 0.0
2014-Jul-17 14:32N 31°58' E 120°24'0 0.0
2014-Jul-17 13:32N 31°58' E 120°24'0 0.0
2014-Jul-17 12:32N 31°58' E 120°24'0 0.0
2014-Jul-17 11:32N 31°58' E 120°24'0 0.0
2014-Jul-17 10:32N 31°58' E 120°24'0 0.0
2014-Jul-17 09:32N 31°58' E 120°24'4 3.9
2014-Jul-17 08:34N 32°01' E 120°27'8 8.4
2014-Jul-17 07:34N 31°60' E 120°36'7 6.4
2014-Jul-17 06:32N 31°60' E 120°44'0 0.0
2014-Jul-17 05:26N 31°60' E 120°44'0 0.0
2014-Jul-17 04:20N 31°60' E 120°44'0 0.1
2014-Jul-17 03:32N 31°60' E 120°44'0 0.0
2014-Jul-17 02:32N 31°60' E 120°44'0 0.0
2014-Jul-17 01:32N 31°60' E 120°44'0 0.1
2014-Jul-17 00:32N 31°60' E 120°44'0 0.0
2014-Jul-16 23:32N 31°60' E 120°44'0 0.1
2014-Jul-16 22:26N 31°60' E 120°44'0 0.0
2014-Jul-16 21:32N 31°60' E 120°44'0 0.0
2014-Jul-16 20:32N 31°60' E 120°44'0 0.1
2014-Jul-16 19:32N 31°60' E 120°44'0 0.1
2014-Jul-16 18:32N 31°60' E 120°44'0 0.0
2014-Jul-16 17:32N 31°60' E 120°44'0 0.1
2014-Jul-16 16:26N 31°60' E 120°44'0 0.1
2014-Jul-16 15:20N 31°60' E 120°44'0 0.1
2014-Jul-16 14:33N 31°60' E 120°44'1010.1
2014-Jul-16 13:33N 32°03' E 120°33'1211.6
2014-Jul-16 12:34N 31°59' E 120°20'5 5.4
2014-Jul-16 11:33N 31°56' E 120°15'0 0.0
2014-Jul-16 10:27N 31°56' E 120°15'0 0.0
2014-Jul-16 09:33N 31°56' E 120°15'0 0.0
2014-Jul-16 08:33N 31°56' E 120°15'0 0.0
2014-Jul-16 07:33N 31°56' E 120°15'0 0.0
2014-Jul-16 06:33N 31°56' E 120°15'0 0.0
2014-Jul-16 05:33N 31°56' E 120°15'0 0.0
2014-Jul-16 04:29N 31°56' E 120°15'0 0.0
2014-Jul-16 03:33N 31°56' E 120°15'0 0.0
2014-Jul-16 02:33N 31°56' E 120°15'0 0.0
2014-Jul-16 01:33N 31°56' E 120°15'0 0.0
2014-Jul-16 00:33N 31°56' E 120°15'  

Dump ship's entire track history